| time (UTC) | temp F | wind direction | speed MPH | gust MPH | rain 1hr in | rain 24hr in | rain mn in | humidity % | barometer mb |
| 20260906072408 | 79 | 198 | 1.0 | 4.0 | 0.00 | 0.00 | 0.00 | 78 | 1015.0 |
| 20260906071328 | 79 | 150 | 1.0 | 3.0 | 0.00 | 0.00 | 0.00 | 78 | 1015.1 |
| 20260906070357 | 80 | 150 | 1.0 | 3.0 | 0.00 | 0.00 | 0.00 | 77 | 1015.2 |
| 20260906065349 | 80 | 150 | 0.0 | 1.0 | 0.00 | 0.00 | 0.00 | 76 | 1015.3 |
| 20260906064334 | 80 | 150 | 0.0 | 2.0 | 0.00 | 0.00 | 0.00 | 76 | 1015.4 |
| 20260906063339 | 81 | 150 | 0.0 | 2.0 | 0.00 | 0.00 | 0.00 | 75 | 1015.4 |
| 20260906062323 | 81 | 150 | 1.0 | 4.0 | 0.00 | 0.00 | 0.00 | 74 | 1015.4 |
| 20260906061338 | 81 | 238 | 0.0 | 3.0 | 0.00 | 0.00 | 0.00 | 72 | 1015.5 |
| 20260906060323 | 82 | 212 | 1.0 | 5.0 | 0.00 | 0.00 | 0.00 | 72 | 1015.6 |
| 20260906055327 | 82 | 192 | 1.0 | 6.0 | 0.00 | 0.00 | 0.00 | 71 | 1015.5 |
| 20260906054337 | 82 | 148 | 3.0 | 7.0 | 0.00 | 0.00 | 0.00 | 70 | 1015.4 |
| 20260906053341 | 82 | 225 | 2.0 | 5.0 | 0.00 | 0.00 | 0.00 | 70 | 1015.4 |
| 20260906052326 | 83 | 156 | 3.0 | 8.0 | 0.00 | 0.00 | 0.00 | 69 | 1015.5 |
| 20260906051338 | 83 | 179 | 2.0 | 8.0 | 0.00 | 0.00 | 0.00 | 69 | 1015.5 |
| 20260906050322 | 83 | 184 | 3.0 | 7.0 | 0.00 | 0.00 | 0.00 | 69 | 1015.5 |
| 20260906045352 | 83 | 169 | 4.0 | 10.0 | 0.00 | 0.00 | 0.00 | 69 | 1015.7 |
| 20260906044324 | 84 | 164 | 4.0 | 12.0 | 0.00 | 0.00 | 0.00 | 69 | 1015.6 |
| 20260906043354 | 84 | 175 | 6.0 | 14.0 | 0.00 | 0.00 | 0.00 | 68 | 1015.8 |
| 20260906042412 | 84 | 202 | 6.0 | 12.0 | 0.00 | 0.00 | 0.00 | 68 | 1015.8 |
| 20260906041323 | 85 | 159 | 8.0 | 12.0 | 0.00 | 0.00 | 0.00 | 67 | 1015.6 |
| 20260906040338 | 85 | 143 | 6.0 | 11.0 | 0.00 | 0.00 | 0.00 | 67 | 1015.6 |
| 20260906035358 | 85 | 204 | 4.0 | 9.0 | 0.00 | 0.00 | 0.00 | 67 | 1015.5 |
| 20260906034327 | 86 | 151 | 4.0 | 9.0 | 0.00 | 0.00 | 0.00 | 66 | 1015.4 |
| 20260906033357 | 86 | 153 | 5.0 | 9.0 | 0.00 | 0.00 | 0.00 | 65 | 1015.2 |
| 20260906032327 | 86 | 147 | 6.0 | 11.0 | 0.00 | 0.00 | 0.00 | 64 | 1015.1 |
| 20260906025403 | 88 | 162 | 6.0 | 11.0 | 0.00 | 0.00 | 0.00 | 60 | 1014.5 |
| 20260906024325 | 88 | 173 | 5.0 | 10.0 | 0.00 | 0.00 | 0.00 | 57 | 1014.2 |
| 20260906023352 | 88 | 148 | 5.0 | 8.0 | 0.00 | 0.00 | 0.00 | 57 | 1014.0 |
| 20260906022421 | 88 | 144 | 2.0 | 7.0 | 0.00 | 0.00 | 0.00 | 56 | 1013.5 |
| 20260906021344 | 88 | 138 | 3.0 | 8.0 | 0.00 | 0.00 | 0.00 | 55 | 1013.3 |
| 20260906020420 | 88 | 111 | 4.0 | 8.0 | 0.00 | 0.00 | 0.00 | 55 | 1013.2 |
| 20260906015325 | 86 | 100 | 2.0 | 9.0 | 0.00 | 0.00 | 0.00 | 57 | 1013.1 |
| 20260906012347 | 89 | 160 | 0.0 | 0.0 | 0.00 | 0.00 | 0.00 | 54 | 1012.8 |
| 20260906011409 | 90 | 160 | 0.0 | 0.0 | 0.00 | 0.00 | 0.00 | 53 | 1012.8 |
| 20260906010323 | 91 | 160 | 0.0 | 1.0 | 0.00 | 0.00 | 0.00 | 49 | 1012.6 |
| 20260906005347 | 92 | 160 | 1.0 | 3.0 | 0.00 | 0.00 | 0.00 | 48 | 1012.5 |
| 20260906004352 | 92 | 174 | 1.0 | 6.0 | 0.00 | 0.00 | 0.00 | 47 | 1012.5 |
| 20260906003355 | 93 | 146 | 4.0 | 5.0 | 0.00 | 0.00 | 0.00 | 46 | 1012.5 |
| 20260906002410 | 94 | 128 | 2.0 | 5.0 | 0.00 | 0.00 | 0.00 | 44 | 1012.5 |
| 20260906001324 | 94 | 88 | 2.0 | 7.0 | 0.00 | 0.00 | 0.00 | 42 | 1012.5 |
| 20260905235337 | 95 | 136 | 4.0 | 6.0 | 0.00 | 0.00 | 0.00 | 41 | 1012.5 |
| 20260905234337 | 95 | 184 | 2.0 | 8.0 | 0.00 | 0.00 | 0.00 | 42 | 1012.5 |
| 20260905233343 | 95 | 153 | 3.0 | 7.0 | 0.00 | 0.00 | 0.00 | 40 | 1012.5 |
| 20260905232413 | 95 | 88 | 1.0 | 8.0 | 0.00 | 0.00 | 0.00 | 41 | 1012.5 |
| 20260905231419 | 95 | 144 | 1.0 | 5.0 | 0.00 | 0.00 | 0.00 | 41 | 1012.4 |
| 20260905230328 | 95 | 96 | 3.0 | 7.0 | 0.00 | 0.00 | 0.00 | 40 | 1012.2 |
| 20260905225345 | 95 | 138 | 3.0 | 10.0 | 0.00 | 0.00 | 0.00 | 40 | 1012.5 |
| 20260905224415 | 95 | 139 | 4.0 | 10.0 | 0.00 | 0.00 | 0.00 | 42 | 1012.7 |
| 20260905223329 | 94 | 115 | 2.0 | 9.0 | 0.00 | 0.00 | 0.00 | 44 | 1012.6 |
| 20260905222401 | 94 | 155 | 3.0 | 12.0 | 0.00 | 0.00 | 0.00 | 44 | 1012.6 |
| 20260905221330 | 95 | 107 | 4.0 | 9.0 | 0.00 | 0.00 | 0.00 | 43 | 1012.6 |
| 20260905220356 | 95 | 125 | 3.0 | 12.0 | 0.00 | 0.00 | 0.00 | 45 | 1012.8 |
| 20260905215324 | 94 | 67 | 3.0 | 9.0 | 0.00 | 0.00 | 0.00 | 44 | 1012.8 |
| 20260905211356 | 94 | 98 | 2.0 | 7.0 | 0.00 | 0.00 | 0.00 | 46 | 1012.9 |
| 20260905210418 | 95 | 168 | 4.0 | 11.0 | 0.00 | 0.00 | 0.00 | 45 | 1012.9 |
| 20260905205341 | 95 | 132 | 2.0 | 8.0 | 0.00 | 0.00 | 0.00 | 45 | 1012.9 |
| 20260905204401 | 94 | 213 | 5.0 | 8.0 | 0.00 | 0.00 | 0.00 | 46 | 1013.2 |
| 20260905203324 | 94 | 173 | 5.0 | 9.0 | 0.00 | 0.00 | 0.00 | 48 | 1013.5 |
| 20260905202349 | 94 | 225 | 4.0 | 9.0 | 0.00 | 0.00 | 0.00 | 46 | 1013.8 |
| 20260905201419 | 94 | 148 | 3.0 | 9.0 | 0.00 | 0.00 | 0.00 | 50 | 1013.9 |
| 20260905195331 | 93 | 134 | 5.0 | 10.0 | 0.00 | 0.00 | 0.00 | 50 | 1014.2 |
| 20260905194339 | 93 | 158 | 6.0 | 10.0 | 0.00 | 0.00 | 0.00 | 51 | 1014.3 |
| 20260905193409 | 93 | 202 | 1.0 | 8.0 | 0.00 | 0.00 | 0.00 | 52 | 1014.4 |
| 20260905192327 | 94 | 158 | 2.0 | 9.0 | 0.00 | 0.00 | 0.00 | 51 | 1014.7 |
| 20260905191349 | 93 | 194 | 5.0 | 11.0 | 0.00 | 0.00 | 0.00 | 52 | 1014.9 |
| 20260905190408 | 92 | 248 | 2.0 | 11.0 | 0.00 | 0.00 | 0.00 | 54 | 1015.1 |
| 20260905185413 | 92 | 126 | 1.0 | 7.0 | 0.00 | 0.00 | 0.00 | 57 | 1015.4 |
| 20260905184325 | 91 | 118 | 3.0 | 10.0 | 0.00 | 0.00 | 0.00 | 56 | 1015.5 |
| 20260905182337 | 91 | 173 | 4.0 | 7.0 | 0.00 | 0.00 | 0.00 | 56 | 1015.7 |
| 20260905181343 | 91 | 257 | 3.0 | 11.0 | 0.00 | 0.00 | 0.00 | 56 | 1016.1 |
| 20260905180412 | 91 | 209 | 3.0 | 9.0 | 0.00 | 0.00 | 0.00 | 54 | 1016.2 |
| 20260905175332 | 89 | 98 | 5.0 | 8.0 | 0.00 | 0.00 | 0.00 | 58 | 1016.3 |
| 20260905174358 | 89 | 145 | 4.0 | 10.0 | 0.00 | 0.00 | 0.00 | 60 | 1016.5 |
| 20260905173404 | 89 | 156 | 1.0 | 5.0 | 0.00 | 0.00 | 0.00 | 61 | 1016.6 |
| 20260905172419 | 88 | 200 | 1.0 | 9.0 | 0.00 | 0.00 | 0.00 | 63 | 1016.6 |
| 20260905171334 | 88 | 154 | 4.0 | 8.0 | 0.00 | 0.00 | 0.00 | 65 | 1016.7 |
| 20260905170340 | 87 | 175 | 4.0 | 9.0 | 0.00 | 0.00 | 0.00 | 68 | 1016.7 |
| 20260905165416 | 87 | 227 | 4.0 | 10.0 | 0.00 | 0.00 | 0.00 | 67 | 1016.9 |
| 20260905164339 | 86 | 217 | 4.0 | 9.0 | 0.00 | 0.00 | 0.00 | 69 | 1016.9 |
| 20260905163400 | 87 | 163 | 5.0 | 10.0 | 0.00 | 0.00 | 0.00 | 69 | 1016.9 |
| 20260905162325 | 87 | 186 | 4.0 | 7.0 | 0.00 | 0.00 | 0.00 | 68 | 1016.9 |
| 20260905160345 | 86 | 202 | 2.0 | 7.0 | 0.00 | 0.00 | 0.00 | 71 | 1017.0 |
| 20260905155406 | 86 | 207 | 4.0 | 7.0 | 0.00 | 0.00 | 0.00 | 72 | 1017.0 |
| 20260905154331 | 85 | 136 | 5.0 | 9.0 | 0.00 | 0.00 | 0.00 | 73 | 1017.1 |
| 20260905144344 | 82 | 171 | 3.0 | 9.0 | 0.00 | 0.00 | 0.00 | 82 | 1016.9 |
| 20260905143419 | 82 | 188 | 3.0 | 7.0 | 0.00 | 0.00 | 0.00 | 82 | 1016.9 |
| 20260905142323 | 81 | 203 | 3.0 | 8.0 | 0.00 | 0.00 | 0.00 | 84 | 1016.9 |
| 20260905141354 | 81 | 257 | 2.0 | 6.0 | 0.00 | 0.00 | 0.00 | 86 | 1016.7 |
| 20260905140415 | 80 | 204 | 2.0 | 5.0 | 0.00 | 0.00 | 0.00 | 88 | 1016.7 |
| 20260905134345 | 78 | 46 | 0.0 | 0.0 | 0.00 | 0.00 | 0.00 | 88 | 1016.6 |
| 20260905133347 | 78 | 46 | 0.0 | 0.0 | 0.00 | 0.00 | 0.00 | 90 | 1016.5 |
| 20260905132401 | 77 | 46 | 0.0 | 0.0 | 0.00 | 0.00 | 0.00 | 92 | 1016.3 |
| 20260905131422 | 75 | 46 | 0.0 | 0.0 | 0.00 | 0.00 | 0.00 | 93 | 1016.3 |
| 20260905124346 | 72 | 46 | 0.0 | 0.0 | 0.00 | 0.00 | 0.00 | 93 | 1016.0 |
| 20260905123406 | 72 | 46 | 0.0 | 0.0 | 0.00 | 0.00 | 0.00 | 92 | 1015.8 |
| 20260905122328 | 73 | 46 | 0.0 | 0.0 | 0.00 | 0.00 | 0.00 | 92 | 1015.9 |
| 20260905120349 | 73 | 176 | 0.0 | 0.0 | 0.00 | 0.00 | 0.00 | 92 | 1015.6 |
| 20260905115418 | 73 | 176 | 0.0 | 1.0 | 0.00 | 0.00 | 0.00 | 92 | 1015.6 |
| 20260905114340 | 73 | 176 | 0.0 | 0.0 | 0.00 | 0.00 | 0.00 | 91 | 1015.6 |
| 20260905113356 | 73 | 176 | 0.0 | 0.0 | 0.00 | 0.00 | 0.00 | 91 | 1015.8 |
| 20260905112325 | 73 | 176 | 0.0 | 0.0 | 0.00 | 0.00 | 0.00 | 91 | 1015.6 |
| 20260905111355 | 73 | 176 | 0.0 | 0.0 | 0.00 | 0.00 | 0.00 | 91 | 1015.6 |
| 20260905110419 | 74 | 176 | 0.0 | 0.0 | 0.00 | 0.00 | 0.00 | 91 | 1015.6 |
| 20260905105341 | 74 | 176 | 0.0 | 0.0 | 0.00 | 0.00 | 0.00 | 90 | 1015.5 |
| 20260905104402 | 74 | 176 | 0.0 | 0.0 | 0.00 | 0.00 | 0.00 | 90 | 1015.3 |
| 20260905103323 | 74 | 176 | 0.0 | 0.0 | 0.00 | 0.00 | 0.00 | 90 | 1015.2 |
| 20260905100345 | 75 | 176 | 0.0 | 0.0 | 0.00 | 0.00 | 0.00 | 89 | 1015.3 |
| 20260905095412 | 76 | 176 | 0.0 | 0.0 | 0.00 | 0.00 | 0.00 | 90 | 1015.1 |
| 20260905094331 | 76 | 176 | 0.0 | 0.0 | 0.00 | 0.00 | 0.00 | 89 | 1015.2 |
| 20260905093406 | 76 | 176 | 0.0 | 0.0 | 0.00 | 0.00 | 0.00 | 89 | 1015.2 |
| 20260905092324 | 76 | 176 | 0.0 | 0.0 | 0.00 | 0.00 | 0.00 | 89 | 1015.3 |
| 20260905091353 | 77 | 176 | 0.0 | 0.0 | 0.00 | 0.00 | 0.00 | 88 | 1015.2 |
| 20260905090413 | 77 | 176 | 0.0 | 0.0 | 0.00 | 0.00 | 0.00 | 87 | 1015.2 |
| 20260905085327 | 78 | 176 | 0.0 | 0.0 | 0.00 | 0.00 | 0.00 | 87 | 1015.2 |
| 20260905084344 | 78 | 176 | 0.0 | 0.0 | 0.00 | 0.00 | 0.00 | 87 | 1015.3 |
| 20260905083413 | 78 | 176 | 0.0 | 0.0 | 0.00 | 0.00 | 0.00 | 87 | 1015.3 |
| 20260905082331 | 78 | 176 | 0.0 | 1.0 | 0.00 | 0.00 | 0.00 | 87 | 1015.5 |
| 20260905081346 | 79 | 176 | 0.0 | 0.0 | 0.00 | 0.00 | 0.00 | 86 | 1015.5 |
| 20260905080350 | 79 | 176 | 0.0 | 1.0 | 0.00 | 0.00 | 0.00 | 86 | 1015.5 |
| 20260905075356 | 79 | 176 | 0.0 | 3.0 | 0.00 | 0.00 | 0.00 | 85 | 1015.5 |
| 20260905074337 | 79 | 168 | 2.0 | 5.0 | 0.00 | 0.00 | 0.00 | 85 | 1015.5 |
| 20260905073347 | 79 | 138 | 1.0 | 3.0 | 0.00 | 0.00 | 0.00 | 84 | 1015.9 |